User: anonymous   Login
Location: Unspecified
(0.0000°N, 0.0000°E)
Time: 10:51:07
(UTC+00:00)
Language:

Navstar 6 - Orbit

View from above orbital plane
View from above orbital plane
View from above satellite
View from above satellite

Ground track
Ground track

The orbit data is extracted from the following two-line orbital elements,

1 11783U 80032A   18200.46773826 -.00000066 +00000-0 +00000-0 0  9990
2 11783 063.5198 345.6402 0514582 059.9898 333.5301 02.03456131282961
Epoch (UTC): 19 July 2018 11:13:32
Eccentricity: 0.0514582
inclination: 63.5198°
perigee height: 18576 km
apogee height: 21283 km
right ascension of ascending node: 345.6402°
argument of perigee: 59.9898°
revolutions per day: 2.03456131
mean anomaly at epoch: 333.5301°
orbit number at epoch: 28296

The dashed part of the orbit path shows where the satellite is in the earth's shadow,  

DLR